Location: Newark
(25.4800°N, 85.7200°E)
Time: 07:13:19
(UTC+00:00)

Explorer 11/Cluster Stage 4 - Pass Details

Date: 25 August 2019
Orbit: 467 x 1260 km, 28.8° (Epoch: 16 September)

Event Time Altitude Azimuth Distance (km) Brightness Sun altitude
Rises 02:15:50 0° 231° (SW) 3,678 9.6 30.8°
Reaches altitude 10° 02:18:25 10° 226° (SW) 2,838 9.2 31.4°
Maximum altitude 02:25:16 49° 153° (SSE) 1,472 8.8 33.0°
Drops below altitude 10° 02:33:02 10° 82° (E) 3,214 11.0 34.7°
Sets 02:36:08 0° 77° (ENE) 4,201 11.2 35.4°
